{"data":{"norad_id":59405,"epoch":"2026-05-24T22:58:26.634144Z","epoch_age_seconds":75789,"freshness":"FRESH","line1":"1 59405U 24064H   26144.95725271  .00012465  00000+0  46250-3 0  9991","line2":"2 59405  43.0023 345.1329 0000900 231.0601 129.0170 15.27525710120891","mean_motion":15.2752571,"eccentricity":9.0e-5,"inclination_deg":43.0023,"raan_deg":345.1329,"arg_perigee_deg":231.0601,"mean_anomaly_deg":129.017,"bstar":0.0004625,"rev_number":12089,"period_min":94.27009906105,"perigee_km":482.59414326529,"apogee_km":483.82918602493,"semimajor_km":6861.3486646451,"source":"CELESTRAK","updated_at":"2026-05-25T13:38:18.940154Z"}}